Wind_Speed
3 4 4 5 5 6 6 6 7 7 7 8 8 8 8 9 9 8 9 9 9 9 9 10 11 11 12 12 12 12 12 11 12 12 11 10 10 9 8 8 7 6 4
3 4 5 5 5 6 6 6 7 7 7 8 8 8 8 8 9 9 9 9 9 10 10 10 10 11 11 12 12 13 13 12 12 12 12 11 11 10 9 9 8 7 5
4 5 5 5 5 6 6 6 7 7 7 8 8 8 8 9 9 9 9 9 10 10 10 10 10 11 11 12 13 13 13 13 13 13 13 12 11 11 10 10 9 8 6
4 5 5 5 5 6 6 6 7 8 8 8 8 9 9 9 9 10 10 10 10 10 10 11 11 12 12 12 13 14 14 14 14 13 13 13 12 11 11 11 10 9 7
4 5 4 4 5 6 6 7 7 8 8 9 9 9 9 9 10 10 10 10 10 10 11 11 11 12 12 13 13 14 14 14 14 14 13 14 13 12 11 11 11 10 8
4 4 4 5 5 6 7 7 7 8 9 9 9 8 9 9 10 10 10 10 11 11 12 12 12 12 12 12 13 13 14 14 14 14 14 14 14 13 12 11 11 10 9
4 4 5 5 5 6 7 8 8 8 9 8 8 8 9 9 10 10 10 11 11 12 12 13 12 12 13 13 13 13 13 13 13 14 14 14 14 14 13 12 12 11 10
4 5 5 5 6 6 7 8 8 9 8 8 8 8 9 10 10 10 11 11 12 13 13 13 13 13 13 13 13 13 13 13 13 13 15 15 14 14 14 13 12 12 11
4 5 5 5 6 7 7 8 8 8 8 8 8 9 9 10 10 11 11 12 13 13 13 13 13 13 13 13 13 13 13 13 13 13 14 15 15 15 15 14 14 13 12
5 5 5 6 7 7 7 8 8 8 8 8 8 9 9 10 11 11 12 13 14 14 14 13 13 13 14 14 14 13 13 12 13 14 14 15 15 16 16 15 15 14 13
5 4 5 6 8 8 8 8 8 8 8 8 9 9 10 11 11 12 13 14 14 14 14 14 14 14 14 14 14 14 14 13 13 13 15 16 16 16 16 16 16 15 14
4 4 5 6 7 8 7 8 8 8 8 9 9 10 10 11 12 13 14 14 14 14 14 14 14 15 15 15 15 15 14 14 14 14 15 16 16 16 17 16 16 17 16
4 4 5 5 6 7 7 7 8 8 8 9 10 10 11 12 12 13 13 14 14 14 14 14 14 15 15 15 15 15 15 15 15 15 16 16 16 17 17 17 17 17 17
4 4 4 5 5 5 6 6 8 8 8 9 10 11 12 12 12 13 13 14 14 14 14 14 14 15 15 15 15 15 15 15 15 15 16 17 17 17 18 18 18 18 18
3 4 4 5 5 5 6 7 8 8 9 10 10 11 11 12 12 12 13 13 14 14 14 14 14 15 14 15 15 15 15 15 15 15 16 17 17 18 18 19 19 19 19
4 4 5 6 6 6 7 8 8 9 9 10 10 11 11 11 12 13 13 13 14 14 14 14 14 14 14 14 13 13 13 14 16 16 16 17 17 18 19 19 20 20 20
4 4 5 5 5 6 7 7 8 9 10 10 10 10 10 11 12 13 13 13 14 14 14 14 14 13 13 12 12 12 12 13 14 16 17 17 18 18 19 20 21 21 21
3 4 4 5 6 6 7 8 9 10 11 10 10 10 10 11 12 13 13 13 14 14 15 14 13 12 11 11 11 11 11 11 13 15 16 17 18 18 19 20 21 22 22
2 3 4 5 6 6 7 8 9 10 11 10 10 10 10 11 12 13 13 13 14 15 15 13 12 12 11 10 10 10 10 10 12 13 15 17 18 19 20 21 22 22 22
1 3 4 5 6 7 7 8 9 10 10 11 10 11 11 11 12 13 13 13 15 15 14 13 12 11 10 9 9 8 8 8 9 11 14 16 18 19 20 21 22 23 23
2 3 4 5 6 6 7 8 9 9 10 11 11 11 11 12 12 13 13 14 15 15 14 13 12 11 9 8 7 6 5 6 8 10 12 15 17 19 20 21 22 23 23
2 3 4 5 5 6 7 8 8 9 10 11 11 12 12 12 13 13 14 14 14 14 14 13 12 11 9 8 7 5 3 4 6 9 11 13 16 17 19 20 22 22 23
2 3 4 5 5 6 7 7 8 9 10 11 12 12 13 13 13 13 13 14 15 14 14 13 13 12 10 9 7 5 3 2 4 7 10 13 15 17 18 19 21 22 22
3 3 4 4 5 6 6 7 8 9 10 11 12 13 13 13 13 13 13 14 14 14 14 13 13 12 11 9 7 5 3 1 3 5 8 11 13 15 17 18 20 21 21
3 3 3 4 5 6 7 7 8 9 10 11 12 13 14 14 14 14 14 14 14 14 14 13 13 12 12 10 8 6 4 1 1 4 6 9 11 14 16 18 19 20 22
2 2 3 4 5 6 7 8 8 9 10 11 12 13 13 14 14 14 14 14 15 15 14 13 14 13 12 11 9 7 5 2 1 3 5 8 10 12 14 16 17 19 21
Wind_Direction
312 319 318 322 322 324 326 327 326 323 320 317 315 317 319 316 314 312 311 307 301 297 292 286 281 273 270 267 264 262 263 263 263 261 257 254 250 244 239 237 238 236 232
307 318 315 317 320 322 322 321 320 319 316 314 311 312 314 313 310 310 310 305 301 299 296 293 286 278 272 268 265 263 262 262 262 260 256 253 250 245 236 233 237 237 235
306 317 317 317 321 323 320 317 318 317 314 311 309 308 310 311 310 309 307 304 301 299 297 295 291 286 279 273 268 265 263 261 261 259 256 251 248 246 237 234 236 236 235
309 311 311 315 318 321 322 318 317 314 311 309 307 306 307 308 308 308 306 303 302 300 298 296 292 287 284 277 273 270 265 261 260 258 255 249 247 245 238 232 233 233 231
312 315 311 314 319 320 319 317 315 310 309 308 306 306 305 306 308 308 306 304 303 301 299 296 293 289 286 281 277 272 266 262 259 257 253 248 245 240 235 230 231 229 226
313 316 317 318 314 316 316 315 311 310 310 309 308 307 305 305 307 305 305 304 304 302 299 296 293 291 288 283 279 275 270 264 258 255 251 246 241 235 231 229 225 223 219
322 326 322 320 318 320 320 316 311 310 310 309 308 309 306 305 306 304 304 304 304 302 299 296 294 291 290 286 281 276 270 265 262 254 249 246 239 232 228 225 222 220 215
319 321 315 318 318 320 320 318 315 312 311 309 311 312 309 307 307 306 305 304 304 303 299 295 293 291 288 286 282 279 275 269 264 255 248 244 238 230 227 224 222 218 212
310 312 314 315 315 316 318 319 319 317 314 311 311 310 309 308 308 308 307 307 306 305 300 296 293 291 288 285 282 279 276 271 263 255 247 241 235 229 225 224 220 215 210
310 304 303 309 315 314 315 318 319 317 317 315 313 312 312 311 311 311 310 308 308 307 302 297 294 290 287 283 281 279 275 272 264 253 244 238 234 229 224 222 218 212 209
312 307 301 304 312 315 316 317 318 318 317 318 318 317 315 314 314 314 312 311 311 308 303 298 293 289 285 281 278 276 272 266 262 252 242 236 233 227 222 220 215 211 208
317 308 301 302 306 309 313 316 318 317 318 319 319 319 317 317 318 316 316 315 313 311 306 299 294 290 286 282 277 274 271 264 259 253 243 237 232 226 221 218 214 209 207
307 305 300 300 305 310 316 318 319 319 321 321 320 320 320 319 319 319 319 318 316 313 309 303 298 293 289 284 279 274 269 263 258 252 244 237 230 225 219 217 215 210 208
305 308 305 303 305 307 313 319 322 325 326 324 321 320 320 321 323 323 324 322 320 317 313 308 303 298 292 286 281 276 268 263 257 249 243 236 229 224 219 216 214 212 208
319 317 308 305 307 312 320 324 329 332 329 325 323 323 325 327 330 329 329 329 327 322 317 313 309 303 295 288 283 277 268 261 255 247 240 234 226 220 218 215 212 212 208
326 324 320 320 319 326 331 333 335 336 333 331 330 330 332 333 335 335 335 334 331 329 325 319 315 309 301 294 286 279 270 259 251 243 237 231 224 219 216 213 211 209 206
329 326 328 336 335 339 342 344 343 341 341 339 338 336 336 338 339 339 339 338 338 336 332 326 320 314 306 298 290 281 271 259 249 240 235 229 223 220 216 213 210 209 207
334 331 341 350 349 347 350 350 349 349 348 346 343 340 340 341 342 342 342 342 342 341 339 333 327 322 315 306 296 284 271 258 245 237 232 227 222 218 214 211 210 208 206
337 342 350 350 348 348 351 352 349 347 348 349 347 344 344 344 344 345 345 345 345 344 342 339 334 331 324 315 303 288 272 256 241 233 229 224 218 215 212 210 207 207 206
0 355 355 354 353 351 350 352 351 348 351 353 351 350 349 349 348 348 349 350 350 349 348 346 342 338 333 325 315 297 274 255 238 229 226 220 215 213 211 209 208 207 206
12 360 356 350 352 352 352 354 355 355 357 357 355 353 352 353 354 354 353 353 353 353 353 352 350 346 345 340 330 312 281 254 236 229 221 214 212 210 209 208 208 207 206
17 8 4 354 350 351 353 355 357 358 360 0 0 359 359 358 358 358 357 355 356 356 357 358 358 357 356 354 348 337 299 252 230 220 215 210 208 207 207 207 207 207 207
30 26 19 7 4 0 358 360 2 3 4 5 6 5 4 3 1 360 0 0 0 1 360 0 2 2 1 1 360 355 339 270 228 211 208 207 204 204 205 207 208 209 209
47 39 26 17 14 10 8 9 9 11 11 11 11 9 8 6 6 5 5 5 5 5 4 3 5 7 8 9 9 9 4 335 220 206 205 202 202 205 205 206 208 210 209
71 53 38 34 27 21 18 16 15 15 15 14 13 13 12 11 10 9 9 9 9 8 9 8 9 11 14 16 18 19 19 22 192 197 198 200 202 204 207 208 210 211 209
88 66 52 43 34 27 25 22 21 20 19 17 16 16 16 15 15 14 13 14 14 13 12 13 15 15 17 20 22 23 24 29 113 186 199 206 205 206 208 209 211 212 211
Height
5890 5889 5889 5888 5888 5887 5887 5886 5886 5885 5884 5883 5882 5881 5880 5879 5878 5877 5876 5875 5873 5872 5871 5871 5870 5869 5869 5869 5868 5869 5869 5869 5869 5870 5870 5870 5871 5871 5872 5873 5874 5874 5874
5889 5889 5888 5887 5887 5886 5886 5885 5885 5884 5883 5882 5881 5880 5879 5878 5877 5876 5874 5873 5872 5871 5870 5869 5868 5867 5867 5866 5866 5866 5867 5867 5867 5868 5868 5868 5869 5870 5871 5872 5873 5873 5874
5888 5888 5887 5886 5886 5886 5885 5885 5884 5883 5882 5881 5880 5879 5878 5877 5875 5874 5873 5872 5871 5869 5868 5867 5866 5866 5865 5864 5864 5864 5864 5865 5865 5866 5866 5866 5867 5868 5869 5870 5871 5872 5873
5887 5887 5886 5886 5885 5885 5884 5883 5883 5882 5881 5880 5879 5877 5876 5875 5874 5873 5871 5870 5869 5868 5867 5866 5864 5863 5863 5862 5862 5862 5862 5862 5863 5863 5864 5864 5865 5867 5868 5869 5870 5871 5872
5886 5886 5885 5885 5884 5884 5883 5882 5881 5880 5879 5878 5877 5876 5875 5874 5872 5871 5870 5868 5867 5866 5865 5864 5862 5861 5860 5860 5860 5859 5859 5860 5860 5861 5861 5862 5863 5865 5866 5867 5869 5870 5871
5885 5885 5884 5884 5883 5882 5882 5881 5880 5879 5878 5876 5875 5874 5873 5872 5870 5869 5868 5867 5865 5864 5863 5861 5860 5859 5858 5858 5857 5857 5857 5857 5858 5859 5859 5860 5861 5863 5864 5866 5867 5869 5870
5884 5884 5883 5883 5882 5881 5880 5879 5878 5877 5876 5875 5874 5872 5871 5870 5869 5867 5866 5865 5863 5862 5860 5859 5858 5857 5856 5855 5854 5854 5854 5855 5855 5856 5857 5857 5859 5860 5862 5864 5866 5868 5869
5883 5883 5882 5882 5881 5880 5879 5878 5877 5876 5874 5873 5872 5870 5869 5868 5866 5865 5864 5862 5861 5860 5858 5857 5855 5854 5853 5852 5852 5851 5851 5852 5852 5853 5854 5855 5856 5858 5860 5862 5864 5866 5868
5883 5882 5881 5880 5880 5879 5878 5877 5875 5874 5873 5871 5870 5869 5867 5866 5864 5863 5861 5860 5858 5857 5855 5854 5853 5851 5851 5850 5849 5849 5849 5849 5849 5850 5851 5852 5854 5856 5858 5860 5862 5864 5867
5881 5880 5880 5879 5878 5877 5876 5875 5874 5872 5871 5869 5868 5867 5865 5864 5862 5860 5859 5857 5855 5854 5852 5851 5849 5848 5848 5847 5846 5846 5846 5846 5846 5847 5848 5849 5851 5853 5856 5858 5860 5863 5865
5880 5879 5878 5877 5877 5876 5874 5873 5872 5870 5869 5868 5866 5865 5863 5861 5860 5858 5856 5854 5852 5851 5849 5847 5846 5845 5844 5843 5843 5843 5842 5843 5843 5844 5845 5846 5848 5850 5853 5855 5858 5861 5863
5879 5878 5877 5876 5875 5874 5873 5872 5870 5869 5867 5866 5864 5863 5861 5859 5857 5855 5853 5851 5849 5847 5846 5844 5843 5841 5840 5840 5839 5839 5839 5839 5840 5841 5842 5843 5845 5847 5850 5853 5856 5859 5862
5879 5878 5877 5876 5874 5873 5872 5870 5869 5867 5866 5864 5862 5860 5859 5857 5855 5852 5850 5848 5846 5844 5842 5840 5839 5837 5836 5836 5835 5835 5835 5835 5836 5837 5838 5840 5842 5845 5848 5850 5853 5857 5860
5877 5877 5875 5874 5873 5872 5870 5869 5867 5865 5864 5862 5860 5858 5856 5854 5852 5850 5847 5845 5843 5841 5839 5837 5835 5833 5832 5831 5831 5831 5831 5831 5832 5833 5834 5836 5839 5842 5845 5848 5851 5854 5858
5876 5875 5874 5873 5872 5870 5869 5867 5866 5864 5862 5860 5858 5856 5854 5851 5849 5847 5845 5842 5840 5837 5835 5833 5831 5830 5828 5827 5826 5826 5826 5827 5828 5829 5831 5833 5836 5839 5842 5845 5848 5852 5855
5874 5873 5872 5871 5870 5869 5867 5866 5864 5862 5860 5858 5856 5854 5851 5849 5847 5845 5842 5840 5837 5834 5832 5830 5828 5826 5825 5823 5822 5822 5822 5823 5824 5825 5827 5830 5832 5835 5839 5842 5845 5849 5853
5872 5872 5871 5870 5869 5867 5866 5864 5863 5861 5859 5856 5854 5852 5850 5847 5845 5842 5840 5837 5835 5832 5829 5827 5825 5823 5821 5820 5819 5818 5818 5819 5820 5821 5824 5826 5829 5832 5836 5839 5842 5846 5850
5871 5871 5870 5869 5868 5866 5865 5863 5861 5859 5857 5855 5852 5850 5848 5845 5843 5840 5838 5835 5832 5830 5827 5824 5822 5820 5818 5816 5815 5814 5814 5815 5816 5818 5820 5823 5826 5829 5832 5836 5840 5843 5847
5871 5870 5869 5868 5866 5865 5864 5862 5860 5858 5856 5854 5851 5849 5846 5844 5841 5839 5836 5833 5831 5828 5825 5822 5820 5817 5815 5813 5812 5811 5811 5812 5813 5814 5817 5820 5823 5826 5830 5833 5837 5841 5845
5870 5869 5868 5867 5866 5864 5863 5861 5859 5857 5855 5853 5850 5848 5845 5843 5840 5838 5835 5832 5829 5826 5823 5821 5818 5815 5813 5811 5809 5808 5808 5809 5810 5811 5814 5817 5820 5823 5827 5831 5835 5839 5843
5869 5868 5867 5866 5865 5864 5862 5860 5859 5857 5855 5852 5850 5847 5844 5842 5839 5837 5834 5831 5828 5825 5822 5819 5817 5814 5812 5809 5808 5807 5806 5807 5808 5809 5811 5814 5817 5821 5824 5828 5832 5836 5840
5868 5867 5866 5865 5864 5863 5861 5860 5858 5856 5854 5852 5849 5846 5844 5841 5839 5836 5833 5831 5828 5824 5822 5819 5816 5813 5811 5808 5807 5806 5805 5806 5806 5808 5810 5812 5815 5819 5822 5826 5830 5834 5838
5867 5866 5866 5865 5864 5862 5861 5859 5858 5856 5854 5851 5849 5846 5844 5841 5838 5836 5833 5830 5827 5824 5821 5818 5815 5813 5810 5808 5806 5805 5805 5805 5805 5807 5808 5811 5814 5817 5820 5824 5828 5831 5835
5866 5866 5865 5864 5863 5862 5861 5859 5857 5855 5853 5851 5849 5846 5843 5841 5838 5835 5833 5830 5827 5824 5821 5818 5816 5813 5810 5808 5806 5805 5805 5804 5805 5806 5808 5810 5812 5815 5819 5822 5825 5829 5832
5866 5866 5865 5864 5863 5862 5861 5859 5857 5855 5854 5851 5849 5846 5844 5841 5838 5836 5833 5830 5827 5824 5821 5819 5816 5813 5811 5809 5807 5806 5805 5805 5805 5806 5807 5809 5811 5814 5817 5820 5823 5826 5830
5866 5866 5865 5864 5863 5862 5860 5859 5857 5856 5854 5852 5849 5847 5844 5841 5839 5836 5834 5831 5828 5825 5822 5819 5816 5814 5812 5809 5808 5806 5806 5805 5805 5806 5807 5808 5810 5813 5815 5818 5821 5824 5827